Regional Weather Roundup
Issued by NWS Columbia, SC

Home | Current Version | Previous Version | Text Only | Print | Product List | Glossary On
Versions: 1 2 3 4 5 6 7 8 9 10 11 12 13 14 15 16 17 18 19 20 21 22 23 24 25 26 27 28 29 30 31 32 33 34 35 36 37 38 39 40 41 42 43 44 45 46 47 48 49 50
000
ASUS42 KCAE 290010
RWRCAE
REGIONAL WEATHER ROUNDUP
NATIONAL WEATHER SERVICE COLUMBIA SC
800 PM EDT SAT MAR 28 2015

NOTE: "FAIR" INDICATES FEW OR NO CLOUDS BELOW 12,000 FEET WITH NO
SIGNIFICANT WEATHER AND/OR OBSTRUCTIONS TO VISIBILITY.

NOT ALL STATIONS ARE QUALITY CONTROLLED BY THE NATIONAL
WEATHER SERVICE. USE DATA WITH CAUTION...ESPECIALLY
DEWPOINT OBSERVATIONS.

SCZ001>056-GAZ040-063>065-077-290100-
...UPSTATE SOUTH CAROLINA...

CITY           SKY/WX    TMP DP  RH WIND       PRES   REMARKS
ANDERSON       CLEAR     48   7  18 NW13      30.12R
6HR MIN TEMP:  48; 6HR MAX TEMP:  55;

LIBERTY        CLEAR     47  10  22 N8        30.12R
6HR MIN TEMP:  30; 6HR MAX TEMP:  72;

SPARTANBURG    CLEAR     46  10  23 N9        30.13R
CLEMSON        CLEAR     49   3  15 NW13G21   30.14R
6HR MIN TEMP:  49; 6HR MAX TEMP:  56;

GREENVILLE     CLEAR     46  10  23 N13       30.12R
6HR MIN TEMP:  46; 6HR MAX TEMP:  54;

GREENWOOD      CLEAR     48  20  32 SW3       30.12R
6HR MIN TEMP:  47; 6HR MAX TEMP:  54; 6HR PCP: TRACE;

GREER          CLEAR     45  12  26 N7        30.11R
6HR MIN TEMP:  45; 6HR MAX TEMP:  54;

ROCK HILL      CLEAR     45  12  26 N12       30.13R
6HR MIN TEMP:  44; 6HR MAX TEMP:  52;

CHESTER        CLEAR     46  18  31 N6        30.14R
LAURENS        CLEAR     45  23  42 N8        30.13R


...CENTRAL SOUTH CAROLINA...

CITY           SKY/WX    TMP DP  RH WIND       PRES   REMARKS
COLUMBIA APT   PTCLDY    50  23  34 W5        30.12R
6HR MIN TEMP:  50; 6HR MAX TEMP:  56;

COLUMBIA OWENS PTCLDY    52  21  29 CALM      30.13R
6HR MIN TEMP:  51; 6HR MAX TEMP:  56;

DARLINGTON     CLEAR     46  25  42 N6        30.14R
6HR MIN TEMP:  46; 6HR MAX TEMP:  54;

FLORENCE       PTCLDY    47  25  42 N6        30.12R
6HR MIN TEMP:  47; 6HR MAX TEMP:  56;

MCENTIRE ANGB  CLEAR     48  19  31 CALM      30.13R
6HR MIN TEMP:  47; 6HR MAX TEMP:  55; 6HR PCP: TRACE;

ORANGEBURG     CLEAR     52  22  30 N3        30.13R
6HR MIN TEMP:  52; 6HR MAX TEMP:  56;

SUMTER SHAW    CLEAR     49  12  22 NW5       30.11R
6HR MIN TEMP:  49; 6HR MAX TEMP:  56;

AIKEN          FAIR      46  19  34 CALM      30.16R
BARNWELL       FAIR      52  23  32 NW5       30.14R
MANNING        FAIR     N/A N/A N/A NW5       30.14R
CAMDEN         FAIR      46  19  34 CALM      30.13R
LANCASTER      CLEAR     46  18  31 N5        30.13R
WINNSBORO      CLEAR     46  21  36 NW3       30.11R


...EASTERN AND COASTAL SOUTH CAROLINA...

CITY           SKY/WX    TMP DP  RH WIND       PRES   REMARKS
MYRTLE BEACH   PTCLDY    52  27  37 NW8       30.13R
N MYRTLE BCH   CLEAR     50  26  39 NW3       30.11R
6HR MIN TEMP:  50; 6HR MAX TEMP:  56;

CONWAY         FAIR      46  30  53 CALM      30.12R
MARION         FAIR      46  21  36 NW5       30.13R
HARTSVILLE     FAIR      45  19  36 CALM      30.13R
FLORENCE       PTCLDY    47  25  42 N6        30.12R
6HR MIN TEMP:  47; 6HR MAX TEMP:  56;

DARLINGTON     CLEAR     46  25  42 N6        30.14R
6HR MIN TEMP:  46; 6HR MAX TEMP:  54;

CHARLESTON APT CLEAR     49  27  42 N8        30.13R
6HR MIN TEMP:  49; 6HR MAX TEMP:  60;

MOUNT PLEASANT FAIR      52  30  43 NW7       30.13R
WALTERBORO     CLEAR     50  23  34 CALM      30.14R
BEAUFORT       CLEAR     53  24  32 W6        30.13R
6HR MIN TEMP:  53; 6HR MAX TEMP:  59;



...EASTERN GEORGIA...

CITY           SKY/WX    TMP DP  RH WIND       PRES   REMARKS
AUGUSTA BUSH F CLEAR     52  18  26 W7        30.14R
6HR MIN TEMP:  52; 6HR MAX TEMP:  58;

AUGUSTA DANIEL CLEAR     53  16  23 W6        30.13R
6HR MIN TEMP:  53; 6HR MAX TEMP:  57;

THOMSON        CLEAR     51  27  40 CALM      30.19R
6HR MIN TEMP:  51; 6HR MAX TEMP:  58;

WASHINGTON     FAIR      50  28  43 W5        30.14R
CLAXTON        FAIR      52  28  40 W8        30.15R
SYLVANIA       CLEAR     52  26  36 NW8       30.15R
6HR MIN TEMP:  52; 6HR MAX TEMP:  58;

STATESBORO     CLEAR     50  26  40 NW5       30.14R
6HR MIN TEMP:  50; 6HR MAX TEMP:  59;

SAVANNAH       CLEAR     53  25  33 NW6       30.14R
6HR MIN TEMP:  53; 6HR MAX TEMP:  60;



...SOUTHERN NORTH CAROLINA...

CITY           SKY/WX    TMP DP  RH WIND       PRES   REMARKS
CHARLOTTE      PTCLDY    44   8  23 N10G17    30.14R
6HR MIN TEMP:  43; 6HR MAX TEMP:  51;

MONROE         CLEAR     45  11  25 N7        30.12R
6HR MIN TEMP:  45; 6HR MAX TEMP:  51;

WADESBORO      CLEAR     44  13  28 NW5       30.13R
6HR MIN TEMP:  44; 6HR MAX TEMP:  52;

ROCKINGHAM       N/A     45  16  31 NW3       30.13R
6HR MIN TEMP:  45; 6HR MAX TEMP:  50;

RUTHERFORDTON  CLEAR     42  11  28 N3        30.16R
6HR MIN TEMP:  42; 6HR MAX TEMP:  50;

ASHEVILLE      CLEAR     37  10  32 N16G22    30.13R WCI  28
6HR MIN TEMP:  37; 6HR MAX TEMP:  44;


$$


USA.gov is the U.S. government's official web portal to all federal, state and local government web resources and services.